NS3L-13 Weather Reports


Display with metric or nautical units.
time (UTC)temp
F
wind
direction
speed
MPH
gust
MPH
rain 1hr
in
rain 24hr
in
rain mn
in
humidity
%
barometer
mb
20260505201504 81 176 9.0 18.0 0.00 0.03 0.03 35 1007.6
20260505201004 81 199 6.0 16.0 0.00 0.03 0.03 36 1007.5
20260505200504 81 184 8.0 16.0 0.00 0.03 0.03 35 1007.5
20260505195504 81 203 11.0 20.0 0.00 0.03 0.03 36 1007.6
20260505195004 81 178 10.0 20.0 0.00 0.03 0.03 35 1007.6
20260505194504 82 173 6.0 15.0 0.00 0.03 0.03 36 1007.6
20260505194005 81 215 5.0 21.0 0.00 0.03 0.03 37 1007.7
20260505193505 81 167 9.0 20.0 0.00 0.03 0.03 37 1007.6
20260505193004 81 172 12.0 26.0 0.00 0.03 0.03 36 1007.7
20260505192004 81 174 12.0 20.0 0.00 0.03 0.03 36 1007.6
20260505191004 81 175 11.0 22.0 0.00 0.03 0.03 36 1007.7
20260505190506 81 205 7.0 16.0 0.00 0.03 0.03 35 1007.8
20260505190004 81 182 9.0 17.0 0.00 0.03 0.03 35 1007.9
20260505185504 81 184 10.0 18.0 0.00 0.03 0.03 36 1007.9
20260505185004 81 193 6.0 16.0 0.00 0.03 0.03 37 1008.0
20260505184504 82 228 9.0 18.0 0.00 0.03 0.03 36 1008.1
20260505184005 82 218 7.0 16.0 0.00 0.03 0.03 37 1008.1
20260505183504 82 209 9.0 17.0 0.00 0.03 0.03 35 1008.3
20260505183004 82 224 9.0 15.0 0.00 0.03 0.03 33 1008.3
20260505182504 82 190 8.0 16.0 0.00 0.03 0.03 34 1008.4
20260505181504 82 209 7.0 24.0 0.00 0.03 0.03 33 1008.2
20260505181004 81 252 6.0 20.0 0.00 0.03 0.03 35 1008.5
20260505180005 81 191 5.0 17.0 0.00 0.03 0.03 35 1008.7
20260505175504 81 201 8.0 24.0 0.00 0.03 0.03 36 1008.9
20260505175004 81 226 12.0 26.0 0.00 0.03 0.03 35 1008.9
20260505174504 81 214 9.0 17.0 0.00 0.03 0.03 37 1008.8
20260505173505 81 209 7.0 15.0 0.00 0.03 0.03 39 1008.9
20260505173004 81 223 10.0 18.0 0.00 0.03 0.03 38 1009.0
20260505172504 80 171 10.0 23.0 0.00 0.03 0.03 39 1009.0
20260505172004 80 204 10.0 20.0 0.00 0.03 0.03 40 1008.9
20260505171004 80 188 7.0 14.0 0.00 0.03 0.03 41 1009.1
20260505170504 79 215 7.0 14.0 0.00 0.03 0.03 42 1009.2
20260505170004 79 249 6.0 15.0 0.00 0.03 0.03 42 1009.2
20260505165504 79 227 6.0 14.0 0.00 0.03 0.03 42 1009.4
20260505165004 79 244 10.0 17.0 0.00 0.03 0.03 42 1009.5
20260505164504 79 244 7.0 16.0 0.00 0.03 0.03 42 1009.5
20260505163004 78 250 7.0 12.0 0.00 0.03 0.03 44 1009.8
20260505162504 78 241 5.0 14.0 0.00 0.03 0.03 44 1009.9
20260505162004 78 230 7.0 18.0 0.00 0.03 0.03 45 1009.9
20260505161504 78 211 10.0 17.0 0.00 0.03 0.03 43 1009.9
20260505161004 78 230 8.0 18.0 0.00 0.03 0.03 44 1010.0
20260505160504 78 238 5.0 12.0 0.00 0.03 0.03 45 1010.0
20260505153004 76 188 8.0 13.0 0.00 0.03 0.03 47 1010.3
20260505152504 76 219 3.0 9.0 0.00 0.03 0.03 48 1010.3
20260505151504 74 248 6.0 13.0 0.00 0.03 0.03 50 1010.5
20260505151004 74 227 5.0 12.0 0.00 0.03 0.03 50 1010.5
20260505150504 74 230 5.0 10.0 0.00 0.03 0.03 49 1010.5
20260505140505 69 294 7.0 12.0 0.00 0.03 0.03 57 1011.1
20260505125004 63 254 2.0 6.0 0.00 0.03 0.03 74 1011.4
20260505124504 62 205 3.0 6.0 0.00 0.03 0.03 74 1011.4
20260505124004 62 178 3.0 7.0 0.00 0.03 0.03 74 1011.4
20260505123504 62 165 4.0 8.0 0.00 0.03 0.03 74 1011.2
20260505123004 61 150 3.0 7.0 0.00 0.03 0.03 75 1011.2
20260505122004 61 170 3.0 5.0 0.00 0.03 0.03 75 1011.3
20260505121504 60 166 4.0 8.0 0.00 0.03 0.03 76 1011.3
20260505121004 60 167 3.0 9.0 0.00 0.03 0.03 79 1011.4
20260505120004 60 177 1.0 3.0 0.00 0.03 0.03 79 1011.3
20260505115507 59 210 3.0 6.0 0.00 0.03 0.03 81 1011.3
20260505115004 59 152 2.0 6.0 0.00 0.03 0.03 83 1011.1
20260505114503 58 189 3.0 6.0 0.00 0.03 0.03 85 1011.2
20260505114003 57 157 3.0 6.0 0.00 0.03 0.03 88 1010.9
20260505113504 56 162 1.0 3.0 0.00 0.03 0.03 90 1011.0
20260505113004 56 159 1.0 3.0 0.00 0.03 0.03 91 1011.0
20260505112504 55 159 1.0 3.0 0.00 0.03 0.03 91 1011.0
20260505112004 54 158 2.0 3.0 0.00 0.03 0.03 91 1011.0
20260505111504 54 211 0.0 1.0 0.00 0.03 0.03 91 1011.1
20260505110504 53 211 1.0 1.0 0.00 0.03 0.03 91 1011.1
20260505101504 54 155 0.0 1.0 0.00 0.03 0.03 87 1010.6
20260505101004 54 155 1.0 2.0 0.00 0.03 0.03 87 1010.6
20260505100504 54 155 2.0 3.0 0.01 0.03 0.03 87 1010.5
20260505095504 54 155 2.0 3.0 0.01 0.03 0.03 87 1010.4
20260505095004 54 159 2.0 6.0 0.02 0.03 0.03 87 1010.4
20260505094504 54 172 3.0 5.0 0.03 0.03 0.03 87 1010.5
20260505093504 54 147 4.0 9.0 0.03 0.03 0.03 88 1010.4
20260505093004 54 152 3.0 3.0 0.03 0.03 0.03 88 1010.6
20260505092503 54 148 0.0 3.0 0.03 0.03 0.03 87 1010.6
20260505092004 54 148 1.0 3.0 0.03 0.03 0.03 87 1010.6
20260505091504 54 152 3.0 7.0 0.03 0.03 0.03 86 1010.8
20260505091004 54 313 1.0 3.0 0.03 0.03 0.03 85 1010.8
20260505090505 54 313 1.0 2.0 0.02 0.02 0.02 84 1010.8
20260505090004 54 313 2.0 3.0 0.02 0.02 0.02 82 1010.7
20260505085504 54 314 1.0 3.0 0.02 0.02 0.02 81 1010.8
20260505085005 54 314 2.0 5.0 0.01 0.01 0.01 78 1010.9
20260505084504 55 307 3.0 7.0 0.00 0.00 0.00 75 1011.2
20260505084005 55 276 3.0 3.0 0.00 0.00 0.00 73 1011.0
20260505083505 56 244 3.0 3.0 0.00 0.00 0.00 72 1010.9
20260505083004 56 224 2.0 3.0 0.00 0.00 0.00 71 1010.8
20260505082004 56 187 1.0 2.0 0.00 0.00 0.00 70 1010.4
20260505081504 56 187 1.0 2.0 0.00 0.00 0.00 69 1010.5
20260505081004 56 187 1.0 2.0 0.00 0.00 0.00 69 1010.3
20260505080004 56 187 0.0 1.0 0.00 0.00 0.00 69 1010.2
20260505075504 56 187 0.0 2.0 0.00 0.00 0.00 68 1010.3
20260505075005 56 187 0.0 1.0 0.00 0.00 0.00 68 1010.2
20260505074504 56 187 0.0 1.0 0.00 0.00 0.00 67 1010.2
20260505074004 57 187 0.0 0.0 0.00 0.00 0.00 66 1010.2
20260505073505 57 187 0.0 1.0 0.00 0.00 0.00 66 1010.2
20260505073004 57 187 1.0 1.0 0.00 0.00 0.00 67 1010.3
20260505072504 57 187 0.0 1.0 0.00 0.00 0.00 66 1010.3
20260505071504 58 187 0.0 0.0 0.00 0.00 0.00 64 1010.2
20260505071004 58 187 0.0 0.0 0.00 0.00 0.00 64 1010.3
20260505065504 59 187 0.0 0.0 0.00 0.00 0.00 61 1010.2
20260505065004 59 187 0.0 0.0 0.00 0.00 0.00 60 1010.3
20260505064504 60 187 0.0 0.0 0.00 0.00 0.00 60 1010.2
20260505064004 60 187 0.0 1.0 0.00 0.00 0.00 60 1010.3
20260505063504 60 187 1.0 2.0 0.00 0.00 0.00 59 1010.4
20260505063004 60 187 1.0 1.0 0.00 0.00 0.00 59 1010.4
20260505062504 60 187 0.0 1.0 0.00 0.00 0.00 59 1010.4
20260505062004 60 187 0.0 2.0 0.00 0.00 0.00 59 1010.4
20260505061504 60 187 2.0 3.0 0.00 0.00 0.00 58 1010.4
20260505061004 60 187 1.0 2.0 0.00 0.00 0.00 58 1010.4
20260505060505 60 187 1.0 3.0 0.00 0.00 0.00 58 1010.4
20260505060004 60 187 1.0 2.0 0.00 0.00 0.00 57 1010.4
20260505054504 60 187 0.0 2.0 0.00 0.00 0.00 56 1010.4
20260505054004 61 187 0.0 1.0 0.00 0.00 0.00 56 1010.4
20260505053505 61 187 0.0 1.0 0.00 0.00 0.00 56 1010.4
20260505053004 61 187 0.0 0.0 0.00 0.00 0.00 55 1010.4
20260505052504 61 187 0.0 1.0 0.00 0.00 0.00 54 1010.4
20260505052004 61 187 1.0 2.0 0.00 0.00 0.00 54 1010.3
20260505051004 62 174 2.0 6.0 0.00 0.00 0.00 54 1010.4
20260505041504 61 165 0.0 1.0 0.00 0.00 0.00 53 1010.4
20260505040505 61 165 0.0 1.0 0.00 0.00 0.00 52 1010.2
20260505035504 62 165 0.0 1.0 0.00 0.00 0.00 51 1010.1
20260505035004 62 165 0.0 1.0 0.00 0.00 0.00 51 1010.1
20260505034504 62 165 0.0 2.0 0.00 0.00 0.00 51 1010.1
20260505034004 62 165 1.0 2.0 0.00 0.00 0.00 51 1010.2
20260505033504 62 165 1.0 3.0 0.00 0.00 0.00 51 1010.1
20260505032504 62 165 3.0 5.0 0.00 0.00 0.00 51 1010.2
20260505032004 63 164 2.0 5.0 0.00 0.00 0.00 50 1010.2
20260505031504 63 162 2.0 5.0 0.00 0.00 0.00 50 1010.2
20260505031004 63 162 1.0 5.0 0.00 0.00 0.00 50 1010.2
20260505030504 63 149 3.0 5.0 0.00 0.00 0.00 50 1010.3
20260505030004 63 161 5.0 6.0 0.00 0.00 0.00 49 1010.3
20260505025504 63 164 2.0 5.0 0.00 0.00 0.00 49 1010.4
20260505025004 63 179 2.0 3.0 0.00 0.00 0.00 49 1010.4
20260505024504 64 144 2.0 5.0 0.00 0.00 0.00 48 1010.4
20260505024004 64 173 2.0 5.0 0.00 0.00 0.00 48 1010.4
20260505023504 64 173 2.0 5.0 0.00 0.00 0.00 48 1010.4
20260505023004 64 188 2.0 3.0 0.00 0.00 0.00 47 1010.4
20260505022504 64 188 1.0 2.0 0.00 0.00 0.00 47 1010.4
20260505022004 64 188 1.0 6.0 0.00 0.00 0.00 47 1010.5
20260505021504 65 160 1.0 5.0 0.00 0.00 0.00 47 1010.6
20260505021004 65 163 2.0 7.0 0.00 0.00 0.00 46 1010.5
20260505020504 65 192 2.0 5.0 0.00 0.00 0.00 46 1010.6
20260505020004 65 167 3.0 7.0 0.00 0.00 0.00 46 1010.6
20260505015504 65 178 3.0 6.0 0.00 0.00 0.00 46 1010.5
20260505015004 64 169 3.0 7.0 0.00 0.00 0.00 46 1010.6
20260505014505 64 189 2.0 5.0 0.00 0.00 0.00 47 1010.5
20260505014004 64 192 2.0 6.0 0.00 0.00 0.00 46 1010.5
20260505013505 64 168 1.0 5.0 0.00 0.00 0.00 46 1010.4
20260505013005 65 168 1.0 2.0 0.00 0.00 0.00 46 1010.3
20260505012504 65 169 1.0 5.0 0.00 0.00 0.00 45 1010.2
20260505012004 65 168 2.0 5.0 0.00 0.00 0.00 45 1010.2
20260505011503 65 157 1.0 7.0 0.00 0.00 0.00 45 1010.2
20260505011004 66 175 2.0 3.0 0.00 0.00 0.00 44 1010.1
20260505005504 66 161 3.0 6.0 0.00 0.00 0.00 44 1010.1
20260505005004 66 162 2.0 5.0 0.00 0.00 0.00 43 1010.0
20260505004504 66 168 2.0 7.0 0.00 0.00 0.00 43 1009.9
20260505004004 67 164 3.0 7.0 0.00 0.00 0.00 43 1009.8
20260505003505 67 160 2.0 6.0 0.00 0.00 0.00 42 1009.8
20260505002504 67 201 3.0 8.0 0.00 0.00 0.00 42 1009.8
20260505002004 67 173 5.0 9.0 0.00 0.00 0.00 42 1009.8
20260505001504 67 168 3.0 12.0 0.00 0.00 0.00 42 1009.7
20260505001003 68 166 5.0 12.0 0.00 0.00 0.00 41 1009.6
20260505000504 68 167 4.0 9.0 0.00 0.00 0.00 41 1009.6
20260505000003 68 153 4.0 10.0 0.00 0.00 0.00 41 1009.5
20260504235504 68 156 3.0 9.0 0.00 0.00 0.00 41 1009.5
20260504234504 69 164 6.0 12.0 0.00 0.00 0.00 41 1009.5
20260504234004 69 170 6.0 12.0 0.00 0.00 0.00 41 1009.4
20260504233505 69 159 7.0 14.0 0.00 0.00 0.00 41 1009.4
20260504233004 69 165 8.0 18.0 0.00 0.00 0.00 40 1009.3
20260504232504 69 168 7.0 17.0 0.00 0.00 0.00 40 1009.3
20260504232004 69 179 6.0 13.0 0.00 0.00 0.00 40 1009.2
20260504231504 70 174 8.0 15.0 0.00 0.00 0.00 40 1009.1
20260504231003 70 163 6.0 14.0 0.00 0.00 0.00 40 1009.0
20260504230503 70 164 6.0 17.0 0.00 0.00 0.00 39 1009.0
20260504230004 70 162 9.0 15.0 0.00 0.00 0.00 39 1009.0
20260504225505 70 162 8.0 20.0 0.00 0.00 0.00 39 1008.9
20260504225004 71 199 6.0 13.0 0.00 0.00 0.00 38 1008.9
20260504224504 71 156 9.0 17.0 0.00 0.00 0.00 38 1008.9
20260504224004 72 164 8.0 15.0 0.00 0.00 0.00 37 1008.9
20260504223504 72 173 5.0 15.0 0.00 0.00 0.00 35 1008.9
20260504222504 73 211 3.0 13.0 0.00 0.00 0.00 35 1008.9
20260504222004 73 195 4.0 12.0 0.00 0.00 0.00 35 1008.9
20260504221504 73 236 5.0 14.0 0.00 0.00 0.00 34 1008.9
20260504221004 73 200 5.0 16.0 0.00 0.00 0.00 34 1009.0
20260504220004 73 189 7.0 18.0 0.00 0.00 0.00 33 1009.0
20260504215504 73 254 7.0 15.0 0.00 0.00 0.00 34 1009.0
20260504214504 73 268 8.0 16.0 0.00 0.00 0.00 34 1009.0
20260504214006 72 248 7.0 14.0 0.00 0.00 0.00 35 1009.2
20260504213504 72 188 7.0 15.0 0.00 0.00 0.00 34 1009.2
20260504213004 73 213 8.0 17.0 0.00 0.00 0.00 34 1009.3
20260504211504 72 244 6.0 16.0 0.00 0.00 0.00 34 1009.2
20260504211004 73 224 6.0 15.0 0.00 0.00 0.00 35 1009.3
20260504210504 73 238 9.0 20.0 0.00 0.00 0.00 35 1009.4
20260504210004 72 234 7.0 22.0 0.00 0.00 0.00 35 1009.4
20260504205505 72 246 9.0 20.0 0.00 0.00 0.00 35 1009.4
20260504205004 72 223 5.0 15.0 0.00 0.00 0.00 37 1009.4
20260504204004 72 242 6.0 16.0 0.00 0.00 0.00 35 1009.6
20260504203004 72 224 9.0 16.0 0.00 0.00 0.00 34 1009.6
20260504202504 72 222 9.0 20.0 0.00 0.00 0.00 35 1009.5